Hourly Data Report for November 25, 2016

CARBERRY CS
MANITOBA

49°54'20.900" N
99°21'26.800" W
383.50 m
5010547
71170
WZE

Download Data

Hourly Data (November 2016)
Hourly Data Report for November 25, 2016
TIME
LST
Temp Definition
°C
Dew Point Definition
°C
Rel Hum Definition
%
Precip. Amount Definition
mm

Wind Dir Definition
10's deg

Wind Spd Definition
km/h
Visibility Definition
km
Stn Press Definition
kPa
Hmdx Definition


Wind Chill Definition


Weather Definition


00:00 -0.6 -1.2 96 0.0 15 7   97.42   -3 LegendNANA
01:00 -0.7 -1.4 95 0.0 15 5   97.39   -2 LegendNANA
02:00 -0.6 -1.3 95 0.0 18 9   97.39   -4 LegendNANA
03:00 -0.5 -1.1 95 0.0 18 10   97.38   -4 LegendNANA
04:00 -0.3 -0.9 96 0.0 19 6   97.37   -2 LegendNANA
05:00 0.0 -0.7 95 0.0 21 8   97.39   -3 LegendNANA
06:00 0.1 -0.6 95 0.0 22 7   97.40     LegendNANA
07:00 0.3 -0.5 94 0.0 25 6   97.40     LegendNANA
08:00 0.4 -0.5 94 0.0 25 7   97.40     LegendNANA
09:00 0.7 -0.6 91 0.0 24 8   97.40     LegendNANA
10:00 1.4 -0.5 88 0.0 25 8   97.38     LegendNANA
11:00 1.8 -0.6 85 0.0 26 11   97.38     LegendNANA
12:00 2.6 -0.7 78 0.0 25 7   97.31     LegendNANA
13:00 3.9 -0.4 74 0.0 27 7   97.27     LegendNANA
14:00 5.0 -0.3 68 0.0 21 7   97.21     LegendNANA
15:00 5.2 -0.4 67 0.0 17 7   97.15     LegendNANA
16:00 4.2 -0.8 70 0.0 12 7   97.16     LegendNANA
17:00 1.6 -1.2 81 0.0 9 9   97.14     LegendNANA
18:00 -1.1 -2.2 92 0.0 9 12   97.10   -5 LegendNANA
19:00 -0.7 -1.7 93 0.0 10 13   97.05   -5 LegendNANA
20:00 -0.8 -1.4 95 0.0 12 14   97.02   -5 LegendNANA
21:00 -1.5 -2.2 95 0.0 13 12   96.95   -6 LegendNANA
22:00 -2.0 -2.8 94 0.0 13 12   96.89   -6 LegendNANA
23:00 -2.7 -3.5 94 0.0 14 8   96.86   -6 LegendNANA

Notes on Data Quality.

Legend

  • E = Estimated
  • M = Missing
  • NA = Not Available*
  • [empty] = Indicates an unobserved value
Date modified: